Weather in Garlock

United States     35°25′07″N   117°51′03″W
temp.,
°C
wind,
m/s
gust,
m/s
humid.,
%
clouds,
%
prec.,
mm/h
press.,
hPa
HPBL,
m
28 may, sat
sat2823:00+20ssw694085 0.0 1009246
02:00+17sw6948100 0.0 1007165
05:00+15ssw4652100 0.0 1007104
08:00+19wsw51039100 0.0 1007686
11:00+25w111226100 0.0 10061021
14:00+26w16162586 0.0 10031290
17:00+24w161826100 0.0 1001865
20:00+20wsw111628100 0.0 1003541
29 may, sun
sun2923:00+17wsw12153876 0.0 1004471
02:00+15wsw71052100 0.0 1004275
05:00+12w57669 0.0 1004116
08:00+15w345137 0.0 1005410
11:00+23wnw44204 0.0 10041112
14:00+26w1111121 0.0 10011612
17:00+23w1618140 0.0 10001290
20:00+19w814181 0.0 1002402
30 may, mon
mon3023:00+15ne01270 0.0 100519
02:00+13w33260 0.0 100719
05:00+11wsw22260 0.0 100813
08:00+15w11200 0.0 1009312
11:00+21e22130 0.0 10081841
14:00+24e13100 0.0 10062683
17:00+26ssw22100 0.0 10042804
20:00+20w44150 0.0 100548
31 may, tue
tue3123:00+17w22200 0.0 100714
02:00+15wsw22230 0.0 100814
05:00+13wsw22260 0.0 100811
08:00+19wsw11190 0.0 1009259
11:00+25se01120 0.0 10081504
14:00+28s2280 0.0 10062272
17:00+30ssw5480 0.0 10042366
20:00+25wsw34120 0.0 100532
1 june, wed
wed123:00+20wsw33160 0.0 100816
02:00+18wsw22180 0.0 100811
05:00+16wsw22200 0.0 100911
08:00+23nw11130 0.0 1009210
11:00+29ene2380 0.0 10081586
14:00+33ssw34661 0.0 10052808
17:00+34ssw6564 0.0 10042637
20:00+28wsw56114 0.0 100457